Regional Weather Roundup
Issued by NWS Upton, NY

Current Version | Previous Version | Text Only | Print | Product List | Glossary On
Versions: 1 2 3 4 5 6 7 8 9 10 11 12 13 14 15 16 17 18 19 20 21 22 23 24 25 26 27 28 29 30 31 32 33 34 35 36 37 38 39 40 41 42 43 44 45 46 47 48 49 50
000 ASUS41 KOKX 292204 RWROKX REGIONAL WEATHER ROUNDUP NATIONAL WEATHER SERVICE NEW YORK NY 600 PM EDT FRI JUL 29 2016 NOTE: "FAIR" INDICATES FEW OR NO CLOUDS BELOW 12,000 FEET WITH NO SIGNIFICANT WEATHER AND/OR OBSTRUCTIONS TO VISIBILITY. NYZ071-072-176-178-NJZ106-104-292300- NEW YORK CITY METRO AREA CITY SKY/WX TMP DP RH WIND PRES REMARKS Central Park SUNNY 83 69 62 CALM 29.87R LaGuardia APRT MOSUNNY 85 69 58 NE7 29.84R Kennedy INTL MOSUNNY 79 69 71 S12 29.86R Newark/Liberty MOSUNNY 84 69 60 S9 29.84R Bronx Bot Gard N/A 82 68 61 SE7 29.87R Wall St Helipt CLEAR 82 70 65 SW8 29.86R Teterboro SUNNY 86 67 52 S7 29.82S $$ NYZ177-179-078>081-292300- LONG ISLAND NEW YORK CITY SKY/WX TMP DP RH WIND PRES REMARKS Farmingdale SUNNY 83 66 56 SE3 29.85R MacArthur/ISP MOSUNNY 82 65 56 E6 29.84S Shirley SUNNY 83 67 58 VRB3 29.85R Riverhead NOT AVBL Westhampton SUNNY 77 69 76 SE8 29.86R Southhampton N/A 75 70 83 SE8 29.81R Bridgehampton N/A 81 72 74 S2 29.84R East Hampton FAIR 77 70 77 E8 29.84R Montauk N/A 76 70 82 VRB5 29.85R $$ NYZ052-065-067-292300- HUDSON VALLEY CITY SKY/WX TMP DP RH WIND PRES REMARKS White Plains MOSUNNY 79 68 69 S7 29.86R Newburgh NOT AVBL Montgomery LGT RAIN 75 71 87 W8 29.88R Poughkeepsie MOSUNNY 88 64 44 NW6 29.83R Albany MOSUNNY 85 59 41 N13 29.87R $$ NJZ001-105-106-008-010-013-015-019>022-104-292300- NEW JERSEY CITY SKY/WX TMP DP RH WIND PRES REMARKS Newark/Liberty MOSUNNY 84 69 60 S9 29.84R Teterboro SUNNY 86 67 52 S7 29.82S Caldwell SUNNY 88 65 46 CALM 29.85R HX 90 Morristown MOSUNNY 86 66 51 CALM 29.85R Somerville SUNNY 87 67 51 CALM 29.83R HX 90 Linden FAIR 85 66 53 CALM 29.86S Sussex HVY RAIN 73 70 90 NE8G30 29.92R VSB 3/4 Abdover NOT AVBL Trenton SUNNY 85 68 56 W5 29.85S Millville SUNNY 84 69 60 SE6 29.88R Atlantic City SUNNY 79 70 74 E8 29.88R Wrightstown SUNNY 83 70 65 SE6 29.84S Toms River SUNNY 81 71 71 SE7 29.88R Belmar MOSUNNY 80 70 71 SE8 29.88R $$ PAZ047>061-062-071-292300- EASTERN PENNSYLVANIA CITY SKY/WX TMP DP RH WIND PRES REMARKS Philadelphia MOSUNNY 88 67 49 SE5 29.86S HX 91 Allentown SUNNY 89 65 44 CALM 29.86R HX 91 Scranton MOSUNNY 87 61 41 N10 29.90R $$ CTZ002-004>006-009-010-012-RIZ004-006-007-MAZ004-011-015-292300- SOUTHERN NEW ENGLAND IN CT CITY SKY/WX TMP DP RH WIND PRES REMARKS Bradley INTL CLOUDY 86 66 51 N8 29.83R Hartford CLOUDY 86 68 54 E3 29.82R Danbury MOSUNNY 82 68 62 SE7 29.86R Wtrbury/Oxford PTSUNNY 82 66 57 E6 29.89R Bridgeport SUNNY 80 67 64 S8 29.84R Meriden PTSUNNY 87 63 44 CALM 29.82R New Haven MOSUNNY 78 68 71 S8 29.84R Chester FAIR 84 66 54 NE5 29.85R Groton MOSUNNY 77 70 79 SE10 29.83R Wilimantic PTSUNNY 86 65 49 NE7 29.84R IN RI CITY SKY/WX TMP DP RH WIND PRES REMARKS Providence NOT AVBL Block Island MOSUNNY 75 68 78 E6 29.85R Westerly SUNNY 77 69 76 SE8 29.84R IN MA CITY SKY/WX TMP DP RH WIND PRES REMARKS Boston MOSUNNY 77 69 76 E9 29.84S Worchester PTSUNNY 81 60 48 NE5 29.88R Westfield MOSUNNY 87 63 44 N5 29.84R Provincetown CLOUDY 72 70 93 N10 29.84S Nantucket CLOUDY 72 63 73 NE13 29.82R $$ ANZ330-335-338-340-345-350-353-355-292300- COASTAL MARINE OBSERVATIONS STATION/POSITION TIME SKY/WX TEMP WIND PRES VSBY WAVE AIR SEA DIR/SP/G HT/PER (UTC) (F) (DEG/KT/KT) (MB) (MI) (FT/S) NY HARB ENTRANCE 2050 76 75 170/ 2/ 2 1010.6 2/ 4 20S FIRE ISLAND 2050 73 73 10/ 8/ 8 1010.2 4/ 6 GREAT SOUTH BAY 2115 80 82 70/ 8/ 10 N/A 23 SSW MONTAUK P 2050 73 71 50/ 12/ 16 1010.0 3/ 5 15 E BARNEGAT LI 2100 78 N/A 4/ 6 HUDSON CANYON 2050 75 79 1008.1 6/ 6 KINGS POINT 2100 80 74 1010.3 EXECUTION ROCKS 2100 78 10/ 4/ 4 N/A CENTRAL LI SOUND 2115 78 77 220/ 6/ 8 N/A 1/ 4 EASTERN LI SOUND 2100 77 69 140/ 8/ 10 N/A ROBBINS REEF 2118 77 160/ 15/ 15 1009.8 $$ >>>>>>>>>>>>>>>>>>>>>>>>>>>> KEY <<<<<<<<<<<<<<<<<<<<<<<<<<< > < > SKY/WX - Sky Condition/Present Weather < > TMP - Temperature in Fahrenheit < > DP - Dew Point in Fahrenheit < > RH - Relative Humidity in Percent < > WIND - Direction (from) and Speed in MPH < > PRES - Mean Sea Level Pressure (inches of Hg) < > WCI - Wind Chill Index < > VSB - VISIBILITY IN MILES < > HX - HEAT INDEX < > TC - TEMPERATURE IN CELSIUS < > VRB - VARIABLE WIND DIRECTION < > < >>>>>>>>>>>>>>>>>>>>>>>>>>>> KEY <<<<<<<<<<<<<<<<<<<<<<<<<<<

USA.gov is the U.S. government's official web portal to all federal, state and local government web resources and services.